Torna al catalogo

SL-8 R/B

AttivoPO
NORAD 12508·ROCKET BODY·🇷🇺 Russia

Lanciato Jun 4, 1981 da Plesetsk Cosmodrome

Loading…

Prossimi Passaggi (prossime 24 ore)

TLE

AggiornatoSource: Space-Track

Epoca: Sep 14, 2026, 03:44 UTC

1 12508U 81053B   26257.15620794  .00000066  00000-0  51162-4 0  9990
2 12508  82.9618 161.8361 0038481 121.5840 238.9082 13.76650679279654

Traccia SL-8 R/B in tempo reale con AllMySat

Download on the App Store